Time,TemperatureF,DewpointF,PressureIn,WindDirection,WindDirectionDegrees,WindSpeedMPH,WindSpeedGustMPH,Humidity,HourlyPrecipIn,Conditions,Clouds,dailyrainin,SoftwareType,DateUTC
2013-02-17 00:00:00,8.1,5.0,30.07,SSE,158,0.0,1.0,87,0.00,,,0.00,WUHU216DAVISVP2,2013-02-17 05:00:00,
2013-02-17 00:01:00,8.1,5.0,30.07,SSE,162,0.0,0.0,87,0.00,,,0.00,WUHU216DAVISVP2,2013-02-17 05:01:00,
2013-02-17 00:06:00,7.9,4.8,30.07,SSE,162,0.0,0.0,87,0.00,,,0.00,WUHU216DAVISVP2,2013-02-17 05:06:00,
2013-02-17 00:11:00,7.6,4.5,30.07,SSE,162,0.0,0.0,87,0.00,,,0.00,WUHU216DAVISVP2,2013-02-17 05:11:00,
2013-02-17 00:16:00,7.5,4.6,30.07,SSE,162,0.0,0.0,88,0.00,,,0.00,WUHU216DAVISVP2,2013-02-17 05:16:00,
2013-02-17 00:21:00,7.5,4.6,30.07,SSE,162,0.0,0.0,88,0.00,,,0.00,WUHU216DAVISVP2,2013-02-17 05:21:00,
2013-02-17 00:26:00,7.3,4.5,30.07,SSE,162,0.0,0.0,88,0.00,,,0.00,WUHU216DAVISVP2,2013-02-17 05:26:00,
2013-02-17 00:30:00,7.2,4.4,30.07,North,0,0.0,0.0,88,0.00,,,0.00,WUHU216DAVISVP2,2013-02-17 05:30:00,
2013-02-17 00:31:00,7.2,4.4,30.07,SSE,162,0.0,0.0,88,0.00,,,0.00,WUHU216DAVISVP2,2013-02-17 05:31:00,
2013-02-17 00:36:00,7.1,4.5,30.07,SSE,162,0.0,0.0,89,0.00,,,0.00,WUHU216DAVISVP2,2013-02-17 05:36:00,
2013-02-17 00:41:00,7.0,4.4,30.07,SSE,162,0.0,0.0,89,0.00,,,0.00,WUHU216DAVISVP2,2013-02-17 05:41:00,
2013-02-17 00:46:00,6.8,4.2,30.07,SE,143,0.0,1.0,89,0.00,,,0.00,WUHU216DAVISVP2,2013-02-17 05:46:00,
2013-02-17 00:52:00,6.6,4.0,30.07,SSE,158,1.0,2.0,89,0.00,,,0.00,WUHU216DAVISVP2,2013-02-17 05:52:00,
2013-02-17 00:57:00,6.6,4.0,30.07,SSE,155,0.0,2.0,89,0.00,,,0.00,WUHU216DAVISVP2,2013-02-17 05:57:00,
2013-02-17 01:00:00,6.6,4.0,30.07,SSE,158,0.0,2.0,89,0.00,,,0.00,WUHU216DAVISVP2,2013-02-17 06:00:00,
2013-02-17 01:02:00,6.5,3.9,30.07,South,181,0.0,2.0,89,0.00,,,0.00,WUHU216DAVISVP2,2013-02-17 06:02:00,
2013-02-17 01:07:00,6.5,3.9,30.07,SSE,160,0.0,2.0,89,0.00,,,0.00,WUHU216DAVISVP2,2013-02-17 06:07:00,
2013-02-17 01:12:00,6.3,3.7,30.07,SSE,148,1.0,2.0,89,0.00,,,0.00,WUHU216DAVISVP2,2013-02-17 06:12:00,
2013-02-17 01:17:00,6.2,3.6,30.07,SE,138,0.0,2.0,89,0.00,,,0.00,WUHU216DAVISVP2,2013-02-17 06:17:00,
2013-02-17 01:23:00,6.1,3.5,30.07,SE,142,1.0,2.0,89,0.00,,,0.00,WUHU216DAVISVP2,2013-02-17 06:23:00,
2013-02-17 01:28:00,6.1,3.5,30.08,SE,132,0.0,2.0,89,0.00,,,0.00,WUHU216DAVISVP2,2013-02-17 06:28:00,
2013-02-17 01:30:00,6.1,3.6,30.08,SSE,158,0.0,2.0,89,0.00,,,0.00,WUHU216DAVISVP2,2013-02-17 06:30:00,
2013-02-17 01:33:00,6.0,3.4,30.08,SE,132,0.0,2.0,89,0.00,,,0.00,WUHU216DAVISVP2,2013-02-17 06:33:00,
2013-02-17 01:38:00,5.9,3.3,30.07,SE,132,0.0,2.0,89,0.00,,,0.00,WUHU216DAVISVP2,2013-02-17 06:38:00,
2013-02-17 01:43:00,5.8,3.2,30.07,South,169,0.0,1.0,89,0.00,,,0.00,WUHU216DAVISVP2,2013-02-17 06:43:00,
2013-02-17 01:48:00,5.6,3.3,30.07,South,169,0.0,1.0,90,0.00,,,0.00,WUHU216DAVISVP2,2013-02-17 06:48:00,
2013-02-17 01:53:00,5.4,3.1,30.07,South,169,0.0,1.0,90,0.00,,,0.00,WUHU216DAVISVP2,2013-02-17 06:53:00,
2013-02-17 01:58:00,5.1,2.8,30.07,South,169,0.0,1.0,90,0.00,,,0.00,WUHU216DAVISVP2,2013-02-17 06:58:00,
2013-02-17 02:00:00,4.9,2.4,30.07,SE,135,0.0,1.0,89,0.00,,,0.00,WUHU216DAVISVP2,2013-02-17 07:00:00,
2013-02-17 02:03:00,4.8,2.5,30.08,SSE,167,0.0,0.0,90,0.00,,,0.00,WUHU216DAVISVP2,2013-02-17 07:03:00,
2013-02-17 02:08:00,4.4,1.8,30.08,SSE,167,0.0,1.0,89,0.00,,,0.00,WUHU216DAVISVP2,2013-02-17 07:08:00,
2013-02-17 02:13:00,4.3,2.0,30.08,SSE,167,0.0,1.0,90,0.00,,,0.00,WUHU216DAVISVP2,2013-02-17 07:13:00,
2013-02-17 02:19:00,4.4,2.3,30.08,SSE,165,0.0,1.0,91,0.00,,,0.00,WUHU216DAVISVP2,2013-02-17 07:19:00,
2013-02-17 02:24:00,4.5,2.4,30.08,SSE,166,0.0,0.0,91,0.00,,,0.00,WUHU216DAVISVP2,2013-02-17 07:24:00,
2013-02-17 02:29:00,4.5,2.4,30.08,SSE,166,0.0,0.0,91,0.00,,,0.00,WUHU216DAVISVP2,2013-02-17 07:29:00,
2013-02-17 02:30:00,4.5,2.5,30.08,North,0,0.0,0.0,91,0.00,,,0.00,WUHU216DAVISVP2,2013-02-17 07:30:00,
2013-02-17 02:34:00,4.4,2.3,30.08,SSE,165,0.0,1.0,91,0.00,,,0.00,WUHU216DAVISVP2,2013-02-17 07:34:00,
2013-02-17 02:39:00,4.2,1.9,30.08,SSE,164,0.0,1.0,90,0.00,,,0.00,WUHU216DAVISVP2,2013-02-17 07:39:00,
2013-02-17 02:44:00,4.0,1.9,30.08,SSE,162,0.0,1.0,91,0.00,,,0.00,WUHU216DAVISVP2,2013-02-17 07:44:00,
2013-02-17 02:49:00,4.0,1.9,30.08,SSE,160,0.0,1.0,91,0.00,,,0.00,WUHU216DAVISVP2,2013-02-17 07:49:00,
2013-02-17 02:54:00,4.1,2.0,30.08,SSE,149,0.0,1.0,91,0.00,,,0.00,WUHU216DAVISVP2,2013-02-17 07:54:00,
2013-02-17 02:59:00,4.0,1.9,30.09,SSE,149,0.0,0.0,91,0.00,,,0.00,WUHU216DAVISVP2,2013-02-17 07:59:00,
2013-02-17 03:00:00,4.0,2.0,30.09,North,0,0.0,0.0,91,0.00,,,0.00,WUHU216DAVISVP2,2013-02-17 08:00:00,
2013-02-17 03:04:00,3.8,1.7,30.09,SE,141,0.0,0.0,91,0.00,,,0.00,WUHU216DAVISVP2,2013-02-17 08:04:00,
2013-02-17 03:09:00,3.7,1.6,30.09,ESE,120,0.0,1.0,91,0.00,,,0.00,WUHU216DAVISVP2,2013-02-17 08:09:00,
2013-02-17 03:14:00,3.6,1.5,30.09,SE,127,0.0,1.0,91,0.00,,,0.00,WUHU216DAVISVP2,2013-02-17 08:14:00,
2013-02-17 03:19:00,3.6,1.5,30.09,SE,127,0.0,1.0,91,0.00,,,0.00,WUHU216DAVISVP2,2013-02-17 08:19:00,
2013-02-17 03:25:00,3.5,1.4,30.09,SE,127,0.0,1.0,91,0.00,,,0.00,WUHU216DAVISVP2,2013-02-17 08:25:00,
2013-02-17 03:30:00,3.2,1.2,30.09,SE,127,0.0,1.0,91,0.00,,,0.00,WUHU216DAVISVP2,2013-02-17 08:30:00,
2013-02-17 03:35:00,3.0,1.0,30.09,SE,127,0.0,0.0,91,0.00,,,0.00,WUHU216DAVISVP2,2013-02-17 08:35:00,
2013-02-17 03:40:00,3.1,1.3,30.09,SE,127,0.0,0.0,92,0.00,,,0.00,WUHU216DAVISVP2,2013-02-17 08:40:00,
2013-02-17 03:45:00,3.2,1.4,30.09,SE,127,0.0,0.0,92,0.00,,,0.00,WUHU216DAVISVP2,2013-02-17 08:45:00,
2013-02-17 03:50:00,3.0,1.0,30.09,SE,134,0.0,0.0,91,0.00,,,0.00,WUHU216DAVISVP2,2013-02-17 08:50:00,
2013-02-17 03:55:00,3.0,1.2,30.09,SSE,153,0.0,0.0,92,0.00,,,0.00,WUHU216DAVISVP2,2013-02-17 08:55:00,
2013-02-17 04:00:00,2.9,0.8,30.09,SSE,153,0.0,0.0,91,0.00,,,0.00,WUHU216DAVISVP2,2013-02-17 09:00:00,
2013-02-17 04:05:00,2.8,0.7,30.10,SSE,153,0.0,0.0,91,0.00,,,0.00,WUHU216DAVISVP2,2013-02-17 09:05:00,
2013-02-17 04:10:00,2.6,0.5,30.10,SE,143,1.0,1.0,91,0.00,,,0.00,WUHU216DAVISVP2,2013-02-17 09:10:00,
2013-02-17 04:15:00,2.7,0.6,30.10,SE,141,1.0,2.0,91,0.00,,,0.00,WUHU216DAVISVP2,2013-02-17 09:15:00,
2013-02-17 04:21:00,2.6,0.5,30.10,SE,141,0.0,2.0,91,0.00,,,0.00,WUHU216DAVISVP2,2013-02-17 09:21:00,
2013-02-17 04:26:00,2.6,0.5,30.10,SSE,152,0.0,2.0,91,0.00,,,0.00,WUHU216DAVISVP2,2013-02-17 09:26:00,
2013-02-17 04:30:00,2.5,0.5,30.10,SE,135,0.0,2.0,91,0.00,,,0.00,WUHU216DAVISVP2,2013-02-17 09:30:00,
2013-02-17 04:31:00,2.5,0.4,30.10,SSE,152,0.0,2.0,91,0.00,,,0.00,WUHU216DAVISVP2,2013-02-17 09:31:00,
2013-02-17 04:36:00,2.3,0.2,30.10,SSE,152,0.0,1.0,91,0.00,,,0.00,WUHU216DAVISVP2,2013-02-17 09:36:00,
2013-02-17 04:41:00,2.4,0.3,30.11,SSE,152,0.0,1.0,91,0.00,,,0.00,WUHU216DAVISVP2,2013-02-17 09:41:00,
2013-02-17 04:46:00,2.4,0.4,30.10,SSE,152,0.0,1.0,91,0.00,,,0.00,WUHU216DAVISVP2,2013-02-17 09:46:00,
2013-02-17 04:51:00,2.2,0.2,30.11,SSE,153,0.0,1.0,91,0.00,,,0.00,WUHU216DAVISVP2,2013-02-17 09:51:00,
2013-02-17 04:56:00,2.0,0.0,30.11,SSE,152,0.0,0.0,91,0.00,,,0.00,WUHU216DAVISVP2,2013-02-17 09:56:00,
2013-02-17 05:00:00,1.6,-0.4,30.11,SSE,158,0.0,1.0,91,0.00,,,0.00,WUHU216DAVISVP2,2013-02-17 10:00:00,
2013-02-17 05:01:00,1.6,-0.4,30.11,SSE,152,0.0,0.0,91,0.00,,,0.00,WUHU216DAVISVP2,2013-02-17 10:01:00,
2013-02-17 05:06:00,1.6,-0.5,30.11,SSE,153,0.0,0.0,91,0.00,,,0.00,WUHU216DAVISVP2,2013-02-17 10:06:00,
2013-02-17 05:11:00,1.8,0.0,30.11,SSE,153,0.0,0.0,92,0.00,,,0.00,WUHU216DAVISVP2,2013-02-17 10:11:00,
2013-02-17 05:16:00,1.5,-0.6,30.11,SSE,152,0.0,0.0,91,0.00,,,0.00,WUHU216DAVISVP2,2013-02-17 10:16:00,
2013-02-17 05:21:00,1.5,-0.6,30.11,SSE,153,0.0,0.0,91,0.00,,,0.00,WUHU216DAVISVP2,2013-02-17 10:21:00,
2013-02-17 05:26:00,2.1,0.3,30.11,SSE,152,0.0,0.0,92,0.00,,,0.00,WUHU216DAVISVP2,2013-02-17 10:26:00,
2013-02-17 05:30:00,2.3,0.5,30.11,North,0,0.0,0.0,92,0.00,,,0.00,WUHU216DAVISVP2,2013-02-17 10:30:00,
2013-02-17 05:31:00,2.3,0.5,30.11,SSE,153,0.0,0.0,92,0.00,,,0.00,WUHU216DAVISVP2,2013-02-17 10:31:00,
2013-02-17 05:37:00,2.4,0.6,30.11,SSE,153,0.0,0.0,92,0.00,,,0.00,WUHU216DAVISVP2,2013-02-17 10:37:00,
2013-02-17 05:42:00,2.2,0.1,30.11,SSE,153,0.0,0.0,91,0.00,,,0.00,WUHU216DAVISVP2,2013-02-17 10:42:00,
2013-02-17 05:47:00,2.2,0.1,30.11,WSW,255,0.0,0.0,91,0.00,,,0.00,WUHU216DAVISVP2,2013-02-17 10:47:00,
2013-02-17 05:52:00,2.3,0.2,30.11,WSW,256,0.0,0.0,91,0.00,,,0.00,WUHU216DAVISVP2,2013-02-17 10:52:00,
2013-02-17 05:57:00,2.4,0.4,30.11,WSW,255,0.0,0.0,91,0.00,,,0.00,WUHU216DAVISVP2,2013-02-17 10:57:00,
2013-02-17 06:00:00,2.2,0.2,30.11,North,0,0.0,0.0,91,0.00,,,0.00,WUHU216DAVISVP2,2013-02-17 11:00:00,
2013-02-17 06:02:00,2.1,0.1,30.11,West,276,0.0,0.0,91,0.00,,,0.00,WUHU216DAVISVP2,2013-02-17 11:02:00,
2013-02-17 06:07:00,1.7,-0.6,30.11,West,275,0.0,0.0,90,0.00,,,0.00,WUHU216DAVISVP2,2013-02-17 11:07:00,
2013-02-17 06:12:00,1.8,-0.2,30.12,West,276,0.0,0.0,91,0.00,,,0.00,WUHU216DAVISVP2,2013-02-17 11:12:00,
2013-02-17 06:17:00,1.7,-0.4,30.12,West,276,0.0,0.0,91,0.00,,,0.00,WUHU216DAVISVP2,2013-02-17 11:17:00,
2013-02-17 06:22:00,1.7,-0.4,30.12,West,275,0.0,0.0,91,0.00,,,0.00,WUHU216DAVISVP2,2013-02-17 11:22:00,
2013-02-17 06:27:00,1.7,-0.4,30.12,West,276,0.0,0.0,91,0.00,,,0.00,WUHU216DAVISVP2,2013-02-17 11:27:00,
2013-02-17 06:30:00,1.5,-0.8,30.12,North,0,0.0,0.0,90,0.00,,,0.00,WUHU216DAVISVP2,2013-02-17 11:30:00,
2013-02-17 06:32:00,1.4,-0.9,30.12,West,275,0.0,0.0,90,0.00,,,0.00,WUHU216DAVISVP2,2013-02-17 11:32:00,
2013-02-17 06:37:00,1.5,-0.8,30.13,SSE,160,0.0,0.0,90,0.00,,,0.00,WUHU216DAVISVP2,2013-02-17 11:37:00,
2013-02-17 06:43:00,1.2,-1.1,30.13,SSE,150,0.0,0.0,90,0.00,,,0.00,WUHU216DAVISVP2,2013-02-17 11:43:00,
2013-02-17 06:48:00,0.9,-1.4,30.13,SSE,150,0.0,0.0,90,0.00,,,0.00,WUHU216DAVISVP2,2013-02-17 11:48:00,
2013-02-17 06:53:00,0.9,-1.4,30.13,SSE,150,0.0,0.0,90,0.00,,,0.00,WUHU216DAVISVP2,2013-02-17 11:53:00,
2013-02-17 06:58:00,1.4,-0.7,30.13,SSE,150,0.0,0.0,91,0.00,,,0.00,WUHU216DAVISVP2,2013-02-17 11:58:00,
2013-02-17 07:00:00,1.6,-0.4,30.13,North,0,0.0,0.0,91,0.00,,,0.00,WUHU216DAVISVP2,2013-02-17 12:00:00,
2013-02-17 07:03:00,1.6,-0.5,30.13,SSE,150,0.0,0.0,91,0.00,,,0.00,WUHU216DAVISVP2,2013-02-17 12:03:00,
2013-02-17 07:08:00,1.5,-0.8,30.13,SSE,150,0.0,0.0,90,0.00,,,0.00,WUHU216DAVISVP2,2013-02-17 12:08:00,
2013-02-17 07:13:00,1.9,-0.2,30.13,SSE,150,0.0,0.0,91,0.00,,,0.00,WUHU216DAVISVP2,2013-02-17 12:13:00,
2013-02-17 07:18:00,2.3,0.2,30.13,SSE,150,0.0,0.0,91,0.00,,,0.00,WUHU216DAVISVP2,2013-02-17 12:18:00,
2013-02-17 07:23:00,2.3,0.2,30.13,SSE,151,0.0,0.0,91,0.00,,,0.00,WUHU216DAVISVP2,2013-02-17 12:23:00,
2013-02-17 07:28:00,2.2,-0.1,30.13,SSE,150,0.0,0.0,90,0.00,,,0.00,WUHU216DAVISVP2,2013-02-17 12:28:00,
2013-02-17 07:30:00,2.2,-0.1,30.13,North,0,0.0,0.0,90,0.00,,,0.00,WUHU216DAVISVP2,2013-02-17 12:30:00,
2013-02-17 07:33:00,2.3,0.0,30.14,SSE,150,0.0,0.0,90,0.00,,,0.00,WUHU216DAVISVP2,2013-02-17 12:33:00,
2013-02-17 07:38:00,2.3,0.0,30.14,SSE,151,0.0,0.0,90,0.00,,,0.00,WUHU216DAVISVP2,2013-02-17 12:38:00,
2013-02-17 07:43:00,2.2,-0.1,30.14,SSE,150,0.0,0.0,90,0.00,,,0.00,WUHU216DAVISVP2,2013-02-17 12:43:00,
2013-02-17 07:48:00,2.1,-0.2,30.14,SSE,150,0.0,0.0,90,0.00,,,0.00,WUHU216DAVISVP2,2013-02-17 12:48:00,
2013-02-17 07:54:00,2.1,-0.2,30.14,SSE,150,0.0,0.0,90,0.00,,,0.00,WUHU216DAVISVP2,2013-02-17 12:54:00,
2013-02-17 07:59:00,2.2,-0.1,30.14,SSE,151,0.0,0.0,90,0.00,,,0.00,WUHU216DAVISVP2,2013-02-17 12:59:00,
2013-02-17 08:00:00,2.3,0.0,30.14,North,0,0.0,0.0,90,0.00,,,0.00,WUHU216DAVISVP2,2013-02-17 13:00:00,
2013-02-17 08:04:00,2.4,0.1,30.15,SSE,151,0.0,0.0,90,0.00,,,0.00,WUHU216DAVISVP2,2013-02-17 13:04:00,
2013-02-17 08:09:00,2.7,0.7,30.15,SSE,150,0.0,0.0,91,0.00,,,0.00,WUHU216DAVISVP2,2013-02-17 13:09:00,
2013-02-17 08:14:00,3.0,0.7,30.14,SSE,150,0.0,0.0,90,0.00,,,0.00,WUHU216DAVISVP2,2013-02-17 13:14:00,
2013-02-17 08:19:00,3.1,0.8,30.15,SSE,150,0.0,0.0,90,0.00,,,0.00,WUHU216DAVISVP2,2013-02-17 13:19:00,
2013-02-17 08:24:00,3.3,1.0,30.15,West,267,0.0,0.0,90,0.00,,,0.00,WUHU216DAVISVP2,2013-02-17 13:24:00,
2013-02-17 08:29:00,3.2,0.6,30.15,West,278,0.0,0.0,89,0.00,,,0.00,WUHU216DAVISVP2,2013-02-17 13:29:00,
2013-02-17 08:30:00,3.3,0.8,30.15,North,0,0.0,0.0,89,0.00,,,0.00,WUHU216DAVISVP2,2013-02-17 13:30:00,
2013-02-17 08:34:00,3.4,0.8,30.15,West,278,0.0,0.0,89,0.00,,,0.00,WUHU216DAVISVP2,2013-02-17 13:34:00,
2013-02-17 08:39:00,3.7,1.1,30.15,West,278,0.0,0.0,89,0.00,,,0.00,WUHU216DAVISVP2,2013-02-17 13:39:00,
2013-02-17 08:44:00,4.2,1.9,30.15,West,278,0.0,0.0,90,0.00,,,0.00,WUHU216DAVISVP2,2013-02-17 13:44:00,
2013-02-17 08:49:00,4.7,2.4,30.15,West,278,0.0,0.0,90,0.00,,,0.00,WUHU216DAVISVP2,2013-02-17 13:49:00,
2013-02-17 08:54:00,5.3,3.0,30.15,West,278,0.0,0.0,90,0.00,,,0.00,WUHU216DAVISVP2,2013-02-17 13:54:00,
2013-02-17 08:59:00,5.9,3.4,30.15,West,278,0.0,0.0,89,0.00,,,0.00,WUHU216DAVISVP2,2013-02-17 13:59:00,
2013-02-17 09:00:00,6.0,3.5,30.15,North,0,0.0,0.0,89,0.00,,,0.00,WUHU216DAVISVP2,2013-02-17 14:00:00,
2013-02-17 09:04:00,6.4,3.8,30.15,West,278,0.0,0.0,89,0.00,,,0.00,WUHU216DAVISVP2,2013-02-17 14:04:00,
2013-02-17 09:10:00,7.0,4.4,30.15,NW,313,1.0,1.0,89,0.00,,,0.00,WUHU216DAVISVP2,2013-02-17 14:10:00,
2013-02-17 09:15:00,7.4,4.6,30.15,West,276,0.0,2.0,88,0.00,,,0.00,WUHU216DAVISVP2,2013-02-17 14:15:00,
2013-02-17 09:20:00,7.8,4.7,30.16,West,273,0.0,2.0,87,0.00,,,0.00,WUHU216DAVISVP2,2013-02-17 14:20:00,
2013-02-17 09:25:00,8.2,5.1,30.16,West,280,0.0,2.0,87,0.00,,,0.00,WUHU216DAVISVP2,2013-02-17 14:25:00,
2013-02-17 09:30:00,8.7,5.4,30.16,West,270,0.0,2.0,86,0.00,,,0.00,WUHU216DAVISVP2,2013-02-17 14:30:00,
2013-02-17 09:31:00,8.7,5.3,30.16,West,259,0.0,2.0,86,0.00,,,0.00,WUHU216DAVISVP2,2013-02-17 14:31:00,
2013-02-17 09:36:00,9.4,6.1,30.16,WSW,257,0.0,2.0,86,0.00,,,0.00,WUHU216DAVISVP2,2013-02-17 14:36:00,
2013-02-17 09:41:00,9.9,6.3,30.17,NE,34,0.0,1.0,85,0.00,,,0.00,WUHU216DAVISVP2,2013-02-17 14:41:00,
2013-02-17 09:47:00,10.1,6.2,30.17,North,1,1.0,1.0,84,0.00,,,0.00,WUHU216DAVISVP2,2013-02-17 14:47:00,
2013-02-17 09:52:00,10.4,6.2,30.17,WNW,285,1.0,1.0,83,0.00,,,0.00,WUHU216DAVISVP2,2013-02-17 14:52:00,
2013-02-17 09:57:00,10.8,6.6,30.17,West,274,0.0,2.0,83,0.00,,,0.00,WUHU216DAVISVP2,2013-02-17 14:57:00,
2013-02-17 10:00:00,11.1,6.4,30.17,WNW,293,0.0,2.0,81,0.00,,,0.00,WUHU216DAVISVP2,2013-02-17 15:00:00,
2013-02-17 10:02:00,11.1,6.4,30.17,WSW,256,1.0,2.0,81,0.00,,,0.00,WUHU216DAVISVP2,2013-02-17 15:02:00,
2013-02-17 10:07:00,11.3,6.3,30.17,West,274,2.0,4.0,80,0.00,,,0.00,WUHU216DAVISVP2,2013-02-17 15:07:00,
2013-02-17 10:13:00,11.6,6.4,30.17,WSW,246,0.0,4.0,79,0.00,,,0.00,WUHU216DAVISVP2,2013-02-17 15:13:00,
2013-02-17 10:18:00,12.0,6.2,30.17,West,280,1.0,4.0,77,0.00,,,0.00,WUHU216DAVISVP2,2013-02-17 15:18:00,
2013-02-17 10:23:00,12.2,5.5,30.17,WNW,282,4.0,5.0,74,0.00,,,0.00,WUHU216DAVISVP2,2013-02-17 15:23:00,
2013-02-17 10:28:00,12.4,5.4,30.17,West,280,2.0,5.0,73,0.00,,,0.00,WUHU216DAVISVP2,2013-02-17 15:28:00,
2013-02-17 10:30:00,12.5,5.5,30.17,West,270,2.0,5.0,73,0.00,,,0.00,WUHU216DAVISVP2,2013-02-17 15:30:00,
2013-02-17 10:33:00,12.6,5.6,30.17,WNW,288,2.0,5.0,73,0.00,,,0.00,WUHU216DAVISVP2,2013-02-17 15:33:00,
2013-02-17 10:38:00,12.9,5.6,30.17,West,273,3.0,6.0,72,0.00,,,0.00,WUHU216DAVISVP2,2013-02-17 15:38:00,
2013-02-17 10:43:00,13.2,5.9,30.18,West,273,3.0,6.0,72,0.00,,,0.00,WUHU216DAVISVP2,2013-02-17 15:43:00,
2013-02-17 10:48:00,13.6,6.0,30.18,WSW,245,2.0,6.0,71,0.00,,,0.00,WUHU216DAVISVP2,2013-02-17 15:48:00,
2013-02-17 10:53:00,14.0,6.1,30.18,WNW,293,2.0,6.0,70,0.00,,,0.00,WUHU216DAVISVP2,2013-02-17 15:53:00,
2013-02-17 10:58:00,14.2,5.9,30.18,WSW,240,2.0,4.0,69,0.00,,,0.00,WUHU216DAVISVP2,2013-02-17 15:58:00,
2013-02-17 11:00:00,14.5,6.2,30.18,West,270,2.0,6.0,69,0.00,,,0.00,WUHU216DAVISVP2,2013-02-17 16:00:00,
2013-02-17 11:03:00,14.8,6.5,30.18,WNW,294,0.0,4.0,69,0.00,,,0.00,WUHU216DAVISVP2,2013-02-17 16:03:00,
2013-02-17 11:08:00,15.2,6.6,30.18,East,80,3.0,4.0,68,0.00,,,0.00,WUHU216DAVISVP2,2013-02-17 16:08:00,
2013-02-17 11:13:00,15.4,6.4,30.17,NW,322,4.0,4.0,67,0.00,,,0.00,WUHU216DAVISVP2,2013-02-17 16:13:00,
2013-02-17 11:19:00,15.4,6.4,30.18,North,353,1.0,5.0,67,0.00,,,0.00,WUHU216DAVISVP2,2013-02-17 16:19:00,
2013-02-17 11:25:00,15.7,6.7,30.18,WNW,303,1.0,5.0,67,0.00,,,0.00,WUHU216DAVISVP2,2013-02-17 16:25:00,
2013-02-17 11:30:00,16.2,7.5,30.17,West,269,1.0,5.0,68,0.00,,,0.00,WUHU216DAVISVP2,2013-02-17 16:30:00,
2013-02-17 11:35:00,16.3,7.0,30.18,NNE,15,2.0,5.0,66,0.00,,,0.00,WUHU216DAVISVP2,2013-02-17 16:35:00,
2013-02-17 11:40:00,16.5,7.2,30.18,NNW,338,1.0,5.0,66,0.00,,,0.00,WUHU216DAVISVP2,2013-02-17 16:40:00,
2013-02-17 11:45:00,16.8,7.1,30.18,NE,52,1.0,5.0,65,0.00,,,0.00,WUHU216DAVISVP2,2013-02-17 16:45:00,
2013-02-17 11:50:00,16.9,7.5,30.17,NW,304,2.0,4.0,66,0.00,,,0.00,WUHU216DAVISVP2,2013-02-17 16:50:00,
2013-02-17 11:55:00,17.4,7.7,30.18,NNE,32,4.0,4.0,65,0.00,,,0.00,WUHU216DAVISVP2,2013-02-17 16:55:00,
2013-02-17 12:00:00,17.2,7.2,30.18,NNW,345,4.0,5.0,64,0.00,,,0.00,WUHU216DAVISVP2,2013-02-17 17:00:00,
2013-02-17 12:06:00,17.3,6.9,30.18,NNW,336,3.0,5.0,63,0.00,,,0.00,WUHU216DAVISVP2,2013-02-17 17:06:00,
2013-02-17 12:11:00,17.4,7.0,30.18,NNW,327,2.0,5.0,63,0.00,,,0.00,WUHU216DAVISVP2,2013-02-17 17:11:00,
2013-02-17 12:16:00,17.4,6.3,30.18,NW,316,2.0,6.0,61,0.00,,,0.00,WUHU216DAVISVP2,2013-02-17 17:16:00,
2013-02-17 12:21:00,17.3,6.2,30.18,NW,315,0.0,6.0,61,0.00,,,0.00,WUHU216DAVISVP2,2013-02-17 17:21:00,
2013-02-17 12:26:00,17.7,6.9,30.17,NE,40,3.0,5.0,62,0.00,,,0.00,WUHU216DAVISVP2,2013-02-17 17:26:00,
2013-02-17 12:30:00,18.1,6.5,30.18,NW,315,2.0,6.0,60,0.00,,,0.00,WUHU216DAVISVP2,2013-02-17 17:30:00,
2013-02-17 12:31:00,18.2,6.7,30.18,NE,52,0.0,4.0,60,0.00,,,0.00,WUHU216DAVISVP2,2013-02-17 17:31:00,
2013-02-17 12:37:00,18.9,7.0,30.17,ENE,72,1.0,4.0,59,0.00,,,0.00,WUHU216DAVISVP2,2013-02-17 17:37:00,
2013-02-17 12:42:00,18.9,6.2,30.17,NE,49,0.0,5.0,57,0.00,,,0.00,WUHU216DAVISVP2,2013-02-17 17:42:00,
2013-02-17 12:47:00,19.5,7.5,30.17,NNW,345,3.0,5.0,59,0.00,,,0.00,WUHU216DAVISVP2,2013-02-17 17:47:00,
2013-02-17 12:52:00,19.4,7.4,30.17,NNW,327,2.0,5.0,59,0.00,,,0.00,WUHU216DAVISVP2,2013-02-17 17:52:00,
2013-02-17 12:57:00,19.7,7.7,30.16,NNE,27,1.0,5.0,59,0.00,,,0.00,WUHU216DAVISVP2,2013-02-17 17:57:00,
2013-02-17 13:00:00,19.6,7.6,30.16,NNW,338,1.0,5.0,59,0.00,,,0.00,WUHU216DAVISVP2,2013-02-17 18:00:00,
2013-02-17 13:02:00,19.6,7.6,30.16,NNW,330,2.0,5.0,59,0.00,,,0.00,WUHU216DAVISVP2,2013-02-17 18:02:00,
2013-02-17 13:07:00,19.6,7.6,30.16,NNW,330,3.0,7.0,59,0.00,,,0.00,WUHU216DAVISVP2,2013-02-17 18:07:00,
2013-02-17 13:13:00,19.6,7.2,30.16,North,355,1.0,7.0,58,0.00,,,0.00,WUHU216DAVISVP2,2013-02-17 18:13:00,
2013-02-17 13:18:00,19.8,7.8,30.16,NNW,341,5.0,6.0,59,0.00,,,0.00,WUHU216DAVISVP2,2013-02-17 18:18:00,
2013-02-17 13:23:00,20.1,7.7,30.15,NNW,342,1.0,6.0,58,0.00,,,0.00,WUHU216DAVISVP2,2013-02-17 18:23:00,
2013-02-17 13:28:00,20.5,7.7,30.15,NW,304,4.0,7.0,57,0.00,,,0.00,WUHU216DAVISVP2,2013-02-17 18:28:00,
2013-02-17 13:30:00,20.5,7.7,30.15,NNW,338,3.0,7.0,57,0.00,,,0.00,WUHU216DAVISVP2,2013-02-17 18:30:00,
2013-02-17 13:33:00,20.6,7.8,30.15,NNW,339,3.0,7.0,57,0.00,,,0.00,WUHU216DAVISVP2,2013-02-17 18:33:00,
2013-02-17 13:38:00,20.6,7.4,30.15,NE,34,4.0,7.0,56,0.00,,,0.00,WUHU216DAVISVP2,2013-02-17 18:38:00,
2013-02-17 13:44:00,20.5,7.7,30.15,NNW,331,2.0,6.0,57,0.00,,,0.00,WUHU216DAVISVP2,2013-02-17 18:44:00,
2013-02-17 13:49:00,20.6,7.8,30.15,NW,307,1.0,9.0,57,0.00,,,0.00,WUHU216DAVISVP2,2013-02-17 18:49:00,
2013-02-17 13:54:00,20.6,7.8,30.15,NNW,336,1.0,9.0,57,0.00,,,0.00,WUHU216DAVISVP2,2013-02-17 18:54:00,
2013-02-17 13:59:00,20.8,8.0,30.15,NW,326,2.0,9.0,57,0.00,,,0.00,WUHU216DAVISVP2,2013-02-17 18:59:00,
2013-02-17 14:00:00,20.8,7.6,30.15,NW,315,3.0,9.0,56,0.00,,,0.00,WUHU216DAVISVP2,2013-02-17 19:00:00,
2013-02-17 14:04:00,20.9,7.7,30.15,NE,53,1.0,9.0,56,0.00,,,0.00,WUHU216DAVISVP2,2013-02-17 19:04:00,
2013-02-17 14:09:00,21.6,8.3,30.14,NNW,342,0.0,6.0,56,0.00,,,0.00,WUHU216DAVISVP2,2013-02-17 19:09:00,
2013-02-17 14:14:00,21.9,7.8,30.14,ENE,70,1.0,8.0,54,0.00,,,0.00,WUHU216DAVISVP2,2013-02-17 19:14:00,
2013-02-17 14:19:00,22.3,8.2,30.14,NNE,21,3.0,8.0,54,0.00,,,0.00,WUHU216DAVISVP2,2013-02-17 19:19:00,
2013-02-17 14:25:00,22.5,8.7,30.14,NE,43,6.0,7.0,55,0.00,,,0.00,WUHU216DAVISVP2,2013-02-17 19:25:00,
2013-02-17 14:30:00,22.3,8.1,30.14,ENE,58,5.0,9.0,54,0.00,,,0.00,WUHU216DAVISVP2,2013-02-17 19:30:00,
2013-02-17 14:35:00,21.7,8.0,30.14,ENE,74,2.0,9.0,55,0.00,,,0.00,WUHU216DAVISVP2,2013-02-17 19:35:00,
2013-02-17 14:40:00,21.5,7.4,30.14,East,84,0.0,8.0,54,0.00,,,0.00,WUHU216DAVISVP2,2013-02-17 19:40:00,
2013-02-17 14:45:00,22.0,8.3,30.13,North,353,2.0,8.0,55,0.00,,,0.00,WUHU216DAVISVP2,2013-02-17 19:45:00,
2013-02-17 14:50:00,22.8,9.0,30.13,NNE,30,3.0,6.0,55,0.00,,,0.00,WUHU216DAVISVP2,2013-02-17 19:50:00,
2013-02-17 14:55:00,22.0,7.5,30.13,NE,51,5.0,8.0,53,0.00,,,0.00,WUHU216DAVISVP2,2013-02-17 19:55:00,
2013-02-17 15:00:00,21.7,7.6,30.13,NNE,19,2.0,8.0,54,0.00,,,0.00,WUHU216DAVISVP2,2013-02-17 20:00:00,
2013-02-17 15:06:00,21.7,7.6,30.13,NNE,25,5.0,7.0,54,0.00,,,0.00,WUHU216DAVISVP2,2013-02-17 20:06:00,
2013-02-17 15:11:00,21.6,7.5,30.13,NE,50,1.0,7.0,54,0.00,,,0.00,WUHU216DAVISVP2,2013-02-17 20:11:00,
2013-02-17 15:16:00,21.8,8.1,30.13,ENE,65,5.0,10.0,55,0.00,,,0.00,WUHU216DAVISVP2,2013-02-17 20:16:00,
2013-02-17 15:21:00,21.7,7.6,30.13,East,84,3.0,10.0,54,0.00,,,0.00,WUHU216DAVISVP2,2013-02-17 20:21:00,
2013-02-17 15:26:00,21.6,7.9,30.14,NNE,29,6.0,10.0,55,0.00,,,0.00,WUHU216DAVISVP2,2013-02-17 20:26:00,
2013-02-17 15:30:00,21.7,8.4,30.13,NE,45,4.0,10.0,56,0.00,,,0.00,WUHU216DAVISVP2,2013-02-17 20:30:00,
2013-02-17 15:31:00,21.7,8.4,30.13,North,6,2.0,10.0,56,0.00,,,0.00,WUHU216DAVISVP2,2013-02-17 20:31:00,
2013-02-17 15:36:00,21.8,8.5,30.13,East,85,3.0,9.0,56,0.00,,,0.00,WUHU216DAVISVP2,2013-02-17 20:36:00,
2013-02-17 15:42:00,21.9,8.6,30.13,East,79,3.0,9.0,56,0.00,,,0.00,WUHU216DAVISVP2,2013-02-17 20:42:00,
2013-02-17 15:47:00,21.6,7.9,30.13,East,94,6.0,10.0,55,0.00,,,0.00,WUHU216DAVISVP2,2013-02-17 20:47:00,
2013-02-17 15:52:00,21.7,8.8,30.13,East,99,3.0,10.0,57,0.00,,,0.00,WUHU216DAVISVP2,2013-02-17 20:52:00,
2013-02-17 15:57:00,21.6,9.1,30.13,NE,39,4.0,9.0,58,0.00,,,0.00,WUHU216DAVISVP2,2013-02-17 20:57:00,
2013-02-17 16:00:00,21.7,9.2,30.13,ENE,68,4.0,10.0,58,0.00,,,0.00,WUHU216DAVISVP2,2013-02-17 21:00:00,
2013-02-17 16:02:00,21.7,9.2,30.13,ENE,67,5.0,9.0,58,0.00,,,0.00,WUHU216DAVISVP2,2013-02-17 21:02:00,
2013-02-17 16:07:00,21.9,9.4,30.13,NNE,32,3.0,8.0,58,0.00,,,0.00,WUHU216DAVISVP2,2013-02-17 21:07:00,
2013-02-17 16:12:00,21.9,9.4,30.13,NE,48,0.0,7.0,58,0.00,,,0.00,WUHU216DAVISVP2,2013-02-17 21:12:00,
2013-02-17 16:18:00,22.0,9.1,30.13,ENE,58,7.0,9.0,57,0.00,,,0.00,WUHU216DAVISVP2,2013-02-17 21:18:00,
2013-02-17 16:23:00,22.0,9.5,30.13,ENE,74,1.0,9.0,58,0.00,,,0.00,WUHU216DAVISVP2,2013-02-17 21:23:00,
2013-02-17 16:28:00,22.3,9.7,30.13,SE,127,3.0,10.0,58,0.00,,,0.00,WUHU216DAVISVP2,2013-02-17 21:28:00,
2013-02-17 16:30:00,22.5,9.5,30.13,ENE,68,4.0,12.0,57,0.00,,,0.00,WUHU216DAVISVP2,2013-02-17 21:30:00,
2013-02-17 16:33:00,22.5,9.9,30.13,East,84,7.0,12.0,58,0.00,,,0.00,WUHU216DAVISVP2,2013-02-17 21:33:00,
2013-02-17 16:38:00,22.1,9.6,30.13,ENE,76,5.0,12.0,58,0.00,,,0.00,WUHU216DAVISVP2,2013-02-17 21:38:00,
2013-02-17 16:44:00,22.4,9.5,30.13,East,79,3.0,11.0,57,0.00,,,0.00,WUHU216DAVISVP2,2013-02-17 21:44:00,
2013-02-17 16:49:00,22.9,9.9,30.13,ENE,61,6.0,11.0,57,0.00,,,0.00,WUHU216DAVISVP2,2013-02-17 21:49:00,
2013-02-17 16:55:00,23.1,10.1,30.13,East,86,1.0,11.0,57,0.00,,,0.00,WUHU216DAVISVP2,2013-02-17 21:55:00,
2013-02-17 17:00:00,23.5,10.1,30.13,NNE,31,6.0,10.0,56,0.00,,,0.00,WUHU216DAVISVP2,2013-02-17 22:00:00,
2013-02-17 17:05:00,23.0,9.6,30.13,ENE,57,5.0,12.0,56,0.00,,,0.00,WUHU216DAVISVP2,2013-02-17 22:05:00,
2013-02-17 17:10:00,22.5,9.5,30.13,NE,39,4.0,12.0,57,0.00,,,0.00,WUHU216DAVISVP2,2013-02-17 22:10:00,
2013-02-17 17:15:00,21.8,8.9,30.13,NNE,27,4.0,10.0,57,0.00,,,0.00,WUHU216DAVISVP2,2013-02-17 22:15:00,
2013-02-17 17:21:00,21.4,8.9,30.13,NE,51,4.0,10.0,58,0.00,,,0.00,WUHU216DAVISVP2,2013-02-17 22:21:00,
2013-02-17 17:26:00,21.2,9.1,30.13,NE,50,2.0,9.0,59,0.00,,,0.00,WUHU216DAVISVP2,2013-02-17 22:26:00,
2013-02-17 17:30:00,21.2,9.5,30.13,NE,45,3.0,10.0,60,0.00,,,0.00,WUHU216DAVISVP2,2013-02-17 22:30:00,
2013-02-17 17:31:00,21.2,9.5,30.13,NE,46,1.0,9.0,60,0.00,,,0.00,WUHU216DAVISVP2,2013-02-17 22:31:00,
2013-02-17 17:36:00,21.2,9.8,30.13,NNE,25,4.0,4.0,61,0.00,,,0.00,WUHU216DAVISVP2,2013-02-17 22:36:00,
2013-02-17 17:41:00,21.1,9.8,30.13,North,354,1.0,5.0,61,0.00,,,0.00,WUHU216DAVISVP2,2013-02-17 22:41:00,
2013-02-17 17:47:00,20.9,10.0,30.13,NNW,333,3.0,4.0,62,0.00,,,0.00,WUHU216DAVISVP2,2013-02-17 22:47:00,
2013-02-17 17:52:00,20.8,9.9,30.13,NW,325,2.0,4.0,62,0.00,,,0.00,WUHU216DAVISVP2,2013-02-17 22:52:00,
2013-02-17 17:57:00,20.7,9.8,30.12,NNW,336,3.0,4.0,62,0.00,,,0.00,WUHU216DAVISVP2,2013-02-17 22:57:00,
2013-02-17 18:00:00,20.5,9.9,30.12,NNW,338,2.0,5.0,63,0.00,,,0.00,WUHU216DAVISVP2,2013-02-17 23:00:00,
2013-02-17 18:02:00,20.5,9.9,30.12,NW,321,1.0,5.0,63,0.00,,,0.00,WUHU216DAVISVP2,2013-02-17 23:02:00,
2013-02-17 18:07:00,20.3,10.1,30.12,NNW,336,1.0,5.0,64,0.00,,,0.00,WUHU216DAVISVP2,2013-02-17 23:07:00,
2013-02-17 18:12:00,20.2,10.0,30.12,North,355,2.0,5.0,64,0.00,,,0.00,WUHU216DAVISVP2,2013-02-17 23:12:00,
2013-02-17 18:17:00,20.2,10.4,30.12,NNW,327,2.0,4.0,65,0.00,,,0.00,WUHU216DAVISVP2,2013-02-17 23:17:00,
2013-02-17 18:22:00,20.1,10.3,30.12,NNE,25,2.0,3.0,65,0.00,,,0.00,WUHU216DAVISVP2,2013-02-17 23:22:00,
2013-02-17 18:27:00,20.1,10.3,30.12,North,11,2.0,4.0,65,0.00,,,0.00,WUHU216DAVISVP2,2013-02-17 23:27:00,
2013-02-17 18:30:00,20.0,10.1,30.12,NNE,23,2.0,4.0,65,0.00,,,0.00,WUHU216DAVISVP2,2013-02-17 23:30:00,
2013-02-17 18:32:00,20.0,10.2,30.12,NNE,18,0.0,4.0,65,0.00,,,0.00,WUHU216DAVISVP2,2013-02-17 23:32:00,
2013-02-17 18:37:00,20.0,10.5,30.12,NNE,26,1.0,5.0,66,0.00,,,0.00,WUHU216DAVISVP2,2013-02-17 23:37:00,
2013-02-17 18:43:00,19.8,10.3,30.12,NNW,339,0.0,5.0,66,0.00,,,0.00,WUHU216DAVISVP2,2013-02-17 23:43:00,
2013-02-17 18:48:00,19.7,10.2,30.12,NNW,342,1.0,4.0,66,0.00,,,0.00,WUHU216DAVISVP2,2013-02-17 23:48:00,
2013-02-17 18:53:00,19.5,10.4,30.12,NNW,347,1.0,4.0,67,0.00,,,0.00,WUHU216DAVISVP2,2013-02-17 23:53:00,
2013-02-17 18:58:00,19.3,10.2,30.12,North,4,1.0,3.0,67,0.00,,,0.00,WUHU216DAVISVP2,2013-02-17 23:58:00,
2013-02-17 19:00:00,19.2,10.0,30.12,NNW,338,1.0,5.0,67,0.00,,,0.00,WUHU216DAVISVP2,2013-02-18 00:00:00,
2013-02-17 19:03:00,19.2,10.1,30.12,NNE,15,0.0,3.0,67,0.00,,,0.00,WUHU216DAVISVP2,2013-02-18 00:03:00,
2013-02-17 19:08:00,19.1,10.3,30.11,North,11,0.0,3.0,68,0.00,,,0.00,WUHU216DAVISVP2,2013-02-18 00:08:00,
2013-02-17 19:13:00,18.9,10.1,30.12,North,8,1.0,2.0,68,0.00,,,0.00,WUHU216DAVISVP2,2013-02-18 00:13:00,
2013-02-17 19:18:00,18.8,10.0,30.11,NNW,345,3.0,3.0,68,0.00,,,0.00,WUHU216DAVISVP2,2013-02-18 00:18:00,
2013-02-17 19:23:00,18.7,9.9,30.11,NW,324,1.0,3.0,68,0.00,,,0.00,WUHU216DAVISVP2,2013-02-18 00:23:00,
2013-02-17 19:28:00,18.6,10.2,30.11,NNW,336,1.0,3.0,69,0.00,,,0.00,WUHU216DAVISVP2,2013-02-18 00:28:00,
2013-02-17 19:30:00,18.6,10.1,30.11,NNW,338,1.0,3.0,69,0.00,,,0.00,WUHU216DAVISVP2,2013-02-18 00:30:00,
2013-02-17 19:33:00,18.5,10.1,30.11,NW,313,1.0,3.0,69,0.00,,,0.00,WUHU216DAVISVP2,2013-02-18 00:33:00,
2013-02-17 19:38:00,18.5,10.1,30.11,NW,307,2.0,3.0,69,0.00,,,0.00,WUHU216DAVISVP2,2013-02-18 00:38:00,
2013-02-17 19:43:00,18.5,10.1,30.11,NW,314,2.0,4.0,69,0.00,,,0.00,WUHU216DAVISVP2,2013-02-18 00:43:00,
2013-02-17 19:49:00,18.3,9.9,30.11,NW,313,3.0,4.0,69,0.00,,,0.00,WUHU216DAVISVP2,2013-02-18 00:49:00,
2013-02-17 19:54:00,18.2,10.1,30.11,WNW,300,1.0,4.0,70,0.00,,,0.00,WUHU216DAVISVP2,2013-02-18 00:54:00,
2013-02-17 19:59:00,18.1,10.0,30.11,NW,321,1.0,4.0,70,0.00,,,0.00,WUHU216DAVISVP2,2013-02-18 00:59:00,
2013-02-17 20:00:00,18.1,10.0,30.11,NW,315,2.0,4.0,70,0.00,,,0.00,WUHU216DAVISVP2,2013-02-18 01:00:00,
2013-02-17 20:04:00,18.0,9.9,30.11,NW,316,3.0,4.0,70,0.00,,,0.00,WUHU216DAVISVP2,2013-02-18 01:04:00,
2013-02-17 20:09:00,17.9,9.8,30.11,NW,309,1.0,4.0,70,0.00,,,0.00,WUHU216DAVISVP2,2013-02-18 01:09:00,
2013-02-17 20:14:00,17.8,9.7,30.11,NW,323,2.0,5.0,70,0.00,,,0.00,WUHU216DAVISVP2,2013-02-18 01:14:00,
2013-02-17 20:19:00,17.6,9.5,30.11,NW,312,1.0,5.0,70,0.00,,,0.00,WUHU216DAVISVP2,2013-02-18 01:19:00,
2013-02-17 20:24:00,17.5,9.4,30.11,NW,322,1.0,5.0,70,0.00,,,0.00,WUHU216DAVISVP2,2013-02-18 01:24:00,
2013-02-17 20:29:00,17.3,9.6,30.11,NW,307,2.0,5.0,71,0.00,,,0.00,WUHU216DAVISVP2,2013-02-18 01:29:00,
2013-02-17 20:30:00,17.3,9.2,30.11,NW,315,2.0,5.0,70,0.00,,,0.00,WUHU216DAVISVP2,2013-02-18 01:30:00,
2013-02-17 20:34:00,17.1,9.3,30.11,WNW,297,1.0,5.0,71,0.00,,,0.00,WUHU216DAVISVP2,2013-02-18 01:34:00,
2013-02-17 20:39:00,17.0,9.2,30.11,WNW,297,2.0,5.0,71,0.00,,,0.00,WUHU216DAVISVP2,2013-02-18 01:39:00,
2013-02-17 20:44:00,16.8,9.1,30.10,NW,307,3.0,4.0,71,0.00,,,0.00,WUHU216DAVISVP2,2013-02-18 01:44:00,
2013-02-17 20:49:00,16.7,9.0,30.11,NW,305,2.0,4.0,71,0.00,,,0.00,WUHU216DAVISVP2,2013-02-18 01:49:00,
2013-02-17 20:54:00,16.5,9.1,30.10,NW,313,2.0,4.0,72,0.00,,,0.00,WUHU216DAVISVP2,2013-02-18 01:54:00,
2013-02-17 20:59:00,16.3,8.9,30.10,NW,305,2.0,4.0,72,0.00,,,0.00,WUHU216DAVISVP2,2013-02-18 01:59:00,
2013-02-17 21:00:00,16.3,8.9,30.10,WNW,293,2.0,5.0,72,0.00,,,0.00,WUHU216DAVISVP2,2013-02-18 02:00:00,
2013-02-17 21:05:00,16.3,8.9,30.10,WNW,295,4.0,5.0,72,0.00,,,0.00,WUHU216DAVISVP2,2013-02-18 02:05:00,
2013-02-17 21:10:00,16.3,8.9,30.10,NW,322,3.0,5.0,72,0.00,,,0.00,WUHU216DAVISVP2,2013-02-18 02:10:00,
2013-02-17 21:15:00,16.3,8.9,30.10,NW,309,2.0,5.0,72,0.00,,,0.00,WUHU216DAVISVP2,2013-02-18 02:15:00,
2013-02-17 21:20:00,16.2,8.8,30.11,WNW,293,1.0,6.0,72,0.00,,,0.00,WUHU216DAVISVP2,2013-02-18 02:20:00,
2013-02-17 21:25:00,16.1,8.7,30.10,NW,326,3.0,6.0,72,0.00,,,0.00,WUHU216DAVISVP2,2013-02-18 02:25:00,
2013-02-17 21:30:00,16.0,8.6,30.11,NNW,345,2.0,6.0,72,0.00,,,0.00,WUHU216DAVISVP2,2013-02-18 02:30:00,
2013-02-17 21:35:00,16.2,8.8,30.11,WNW,301,4.0,6.0,72,0.00,,,0.00,WUHU216DAVISVP2,2013-02-18 02:35:00,
2013-02-17 21:40:00,16.2,8.8,30.11,NNW,328,4.0,6.0,72,0.00,,,0.00,WUHU216DAVISVP2,2013-02-18 02:40:00,
2013-02-17 21:45:00,16.1,8.7,30.11,NW,311,4.0,6.0,72,0.00,,,0.00,WUHU216DAVISVP2,2013-02-18 02:45:00,
2013-02-17 21:50:00,16.1,8.7,30.11,NNW,335,1.0,6.0,72,0.00,,,0.00,WUHU216DAVISVP2,2013-02-18 02:50:00,
2013-02-17 21:55:00,16.0,8.9,30.12,NW,316,1.0,6.0,73,0.00,,,0.00,WUHU216DAVISVP2,2013-02-18 02:55:00,
2013-02-17 22:00:00,16.1,9.0,30.12,NW,323,4.0,6.0,73,0.00,,,0.00,WUHU216DAVISVP2,2013-02-18 03:00:00,
2013-02-17 22:07:00,16.1,9.0,30.11,NNW,330,3.0,5.0,73,0.00,,,0.00,WUHU216DAVISVP2,2013-02-18 03:07:00,
2013-02-17 22:12:00,16.0,8.9,30.11,NW,325,2.0,5.0,73,0.00,,,0.00,WUHU216DAVISVP2,2013-02-18 03:12:00,
2013-02-17 22:17:00,16.0,8.9,30.11,NW,323,5.0,6.0,73,0.00,,,0.00,WUHU216DAVISVP2,2013-02-18 03:17:00,
2013-02-17 22:22:00,16.1,9.0,30.11,WNW,300,5.0,6.0,73,0.00,,,0.00,WUHU216DAVISVP2,2013-02-18 03:22:00,
2013-02-17 22:28:00,16.1,9.0,30.11,WNW,299,3.0,6.0,73,0.00,,,0.00,WUHU216DAVISVP2,2013-02-18 03:28:00,
2013-02-17 22:30:00,16.1,9.0,30.10,NW,315,3.0,6.0,73,0.00,,,0.00,WUHU216DAVISVP2,2013-02-18 03:30:00,
2013-02-17 22:33:00,16.1,9.0,30.10,NW,321,2.0,6.0,73,0.00,,,0.00,WUHU216DAVISVP2,2013-02-18 03:33:00,
2013-02-17 22:38:00,15.9,8.8,30.10,WNW,303,5.0,7.0,73,0.00,,,0.00,WUHU216DAVISVP2,2013-02-18 03:38:00,
2013-02-17 22:43:00,15.8,8.7,30.10,NW,307,3.0,7.0,73,0.00,,,0.00,WUHU216DAVISVP2,2013-02-18 03:43:00,
2013-02-17 22:49:00,15.9,9.1,30.10,NW,305,6.0,7.0,74,0.00,,,0.00,WUHU216DAVISVP2,2013-02-18 03:49:00,
2013-02-17 22:54:00,16.1,9.3,30.10,NW,307,3.0,7.0,74,0.00,,,0.00,WUHU216DAVISVP2,2013-02-18 03:54:00,
2013-02-17 22:59:00,16.1,9.0,30.10,NW,317,5.0,7.0,73,0.00,,,0.00,WUHU216DAVISVP2,2013-02-18 03:59:00,
2013-02-17 23:00:00,16.2,9.1,30.10,NW,315,3.0,7.0,73,0.00,,,0.00,WUHU216DAVISVP2,2013-02-18 04:00:00,
2013-02-17 23:04:00,16.3,9.2,30.10,WNW,300,6.0,8.0,73,0.00,,,0.00,WUHU216DAVISVP2,2013-02-18 04:04:00,
2013-02-17 23:09:00,16.4,9.3,30.10,WNW,292,2.0,8.0,73,0.00,,,0.00,WUHU216DAVISVP2,2013-02-18 04:09:00,
2013-02-17 23:14:00,16.4,9.3,30.10,WNW,301,5.0,8.0,73,0.00,,,0.00,WUHU216DAVISVP2,2013-02-18 04:14:00,
2013-02-17 23:19:00,16.5,9.4,30.09,West,274,3.0,8.0,73,0.00,,,0.00,WUHU216DAVISVP2,2013-02-18 04:19:00,
2013-02-17 23:24:00,16.6,9.4,30.10,WNW,289,4.0,8.0,73,0.00,,,0.00,WUHU216DAVISVP2,2013-02-18 04:24:00,
2013-02-17 23:30:00,16.6,9.5,30.09,NW,307,4.0,9.0,73,0.00,,,0.00,WUHU216DAVISVP2,2013-02-18 04:30:00,
2013-02-17 23:35:00,16.6,9.5,30.09,WNW,301,5.0,9.0,73,0.00,,,0.00,WUHU216DAVISVP2,2013-02-18 04:35:00,
2013-02-17 23:40:00,16.5,9.4,30.09,NW,312,6.0,9.0,73,0.00,,,0.00,WUHU216DAVISVP2,2013-02-18 04:40:00,
2013-02-17 23:45:00,16.6,9.8,30.09,WNW,287,4.0,9.0,74,0.00,,,0.00,WUHU216DAVISVP2,2013-02-18 04:45:00,
2013-02-17 23:50:00,16.7,9.6,30.09,NW,311,5.0,9.0,73,0.00,,,0.00,WUHU216DAVISVP2,2013-02-18 04:50:00,
2013-02-17 23:55:00,16.8,9.7,30.09,WNW,301,5.0,10.0,73,0.00,,,0.00,WUHU216DAVISVP2,2013-02-18 04:55:00,